OneWeb SL0688

operational
NORAD ID: 61596 Int'l Des: 2024-188 Owner: ONEWEBE Country: UK Constellation: oneweb
LEOCIRCULARPOLARONEWEB_TYPE

About OneWeb SL0688

Description loading...

Live Position

Loading 3D Globe...

Upcoming Passes

Altitude History

Altitude vs Time

uPlot chart will show altitude changes over time

Two-Line Element Set

1 61596U 24188C 26102.49873097 -.00000083 00000-0 -24769-3 0 9992
2 61596 87.9174 18.9283 0001494 121.2342 238.8936 13.17645793 77244
Epoch: Apr 12, 2026 • Age: 7 hours

Current Status

Altitude 1200.9 km
Velocity 7.25 km/s
Sub-Earth Point -16.01°S, 110.41°W
Launch Date Oct 20, 2024
Age 1.4 years
Type internet

Technical Details

Classification Payload
Mass 148.00 kg
Dry Mass 140.00 kg
Total Mass 148.00 kg
Length 1.30 m
Diameter 1.00 m
Span 5.00 m
Shape Trapezoid+2 pan
Manufacturer ONEWUS
Bus Type ARROW
Phase Status In Orbit
Owner/State ONEWEBE/UK

Large Constellations

Loading constellations...